Location: Boiro
(42.6475°N, 8.8834°W)
Time: 17:17:39
(UTC+01:00)

Tiros 1 - Pass Details

Date: 14 December 2021
Orbit: 630 x 663 km, 48.4° (Epoch: 20 January)

Event Time Altitude Azimuth Distance (km) Brightness Sun altitude
Rises 18:56:14 0° 282° (WNW) 2,917 11.5 -9.6°
Reaches altitude 10° 18:58:40 10° 290° (WNW) 2,011 10.4 -10.0°
Maximum altitude 19:03:02 40° 0° (N) 938 7.8 -10.8°
Enters shadow 19:06:24 16° 65° (ENE) 1,668 8.6 -11.3°
Drops below altitude 10° 19:07:26 10° 71° (ENE) 2,026 - -11.5°
Sets 19:09:54 0° 79° (E) 2,940 - -11.9°
